contact:dominique.lefevre@mio.osupytheas.fr, maurice.libes@osupytheas.fr, didier.mallarino@osupytheas.fr
Project:EMSO http://www.emso-fr.org/EMSO-France
Depth: 2436.0 m
Title:EMSO Ligure Ouest : Data MII capteur AQUADOPP
Date,Latitude,Longitude,X_East,Y_North,Z_Up,Amplitude_X,Amplitude_Y,Amplitude_Z,Batterie,SoundSpeed,Heading,Pitch,Roll,Pressure,TIS,Speed,Direction
, degrees North, degrees East, m.s-1, m.s-1,m.s-1, 1, 1, 1, Volt, m.s-1, degree, degree, degree, dbar, degree_C, m.s-1, degree
2021-02-26T00:04:03,42.805,6.029,0.078,-0.05,0.017,106.0,105.0,103.0,13.3,1505.2,326.9,-0.8,1.8,2470.405,13.28,0.092,122.7
2021-02-26T00:07:03,42.805,6.029,0.093,-0.054,0.045,106.0,105.0,103.0,13.3,1505.2,323.2,-0.7,1.8,2470.398,13.28,0.107,120.1
2021-02-26T00:10:03,42.805,6.029,0.075,-0.06,0.04,105.0,105.0,103.0,13.4,1505.2,327.1,-0.8,1.8,2470.385,13.28,0.096,128.7
2021-02-26T00:13:03,42.805,6.029,0.089,-0.046,0.002,107.0,106.0,102.0,13.3,1505.2,325.6,-0.8,1.8,2470.412,13.28,0.1,117.3
2021-02-26T00:16:03,42.805,6.029,0.07,-0.046,0.009,106.0,104.0,104.0,13.4,1505.2,327.9,-0.7,1.8,2470.358,13.28,0.083,123.3
2021-02-26T00:19:03,42.805,6.029,0.095,-0.06,0.033,106.0,105.0,103.0,13.4,1505.2,326.5,-0.7,1.9,2470.358,13.28,0.112,122.3
2021-02-26T00:22:03,42.805,6.029,0.087,-0.064,0.016,107.0,104.0,103.0,13.4,1505.2,328.3,-0.8,1.8,2470.399,13.28,0.108,126.3
2021-02-26T00:25:03,42.805,6.029,0.067,-0.041,0.008,105.0,106.0,103.0,13.4,1505.2,324.6,-0.7,1.9,2470.366,13.28,0.078,121.5
2021-02-26T00:28:03,42.805,6.029,0.094,-0.042,0.005,106.0,106.0,103.0,13.4,1505.2,328.2,-0.8,1.9,2470.385,13.28,0.102,114.1
2021-02-26T00:31:03,42.805,6.029,0.092,-0.058,0.007,106.0,106.0,104.0,13.4,1505.2,323.4,-0.8,1.8,2470.344,13.28,0.108,122.2
2021-02-26T00:34:03,42.805,6.029,0.079,-0.057,0.017,106.0,106.0,104.0,13.4,1505.2,325.2,-0.8,1.8,2470.36,13.28,0.097,125.8
2021-02-26T00:37:03,42.805,6.029,0.077,-0.052,0.017,107.0,105.0,104.0,13.4,1505.2,325.4,-0.7,1.9,2470.379,13.28,0.092,124.0
2021-02-26T00:40:03,42.805,6.029,0.07,-0.057,0.001,107.0,106.0,104.0,13.4,1505.2,328.1,-0.8,1.8,2470.377,13.28,0.09,129.2
2021-02-26T00:43:03,42.805,6.029,0.071,-0.031,0.038,107.0,107.0,103.0,13.4,1505.2,324.0,-0.8,1.9,2470.355,13.28,0.077,113.6
2021-02-26T00:46:03,42.805,6.029,0.075,-0.021,0.012,106.0,106.0,103.0,13.4,1505.2,324.4,-0.8,1.8,2470.356,13.28,0.077,105.6
2021-02-26T00:49:03,42.805,6.029,0.081,-0.055,0.018,107.0,106.0,105.0,13.4,1505.2,324.5,-0.8,1.8,2470.336,13.28,0.097,124.2
2021-02-26T00:52:03,42.805,6.029,0.09,-0.063,0.004,106.0,105.0,104.0,13.4,1505.2,324.4,-0.8,1.8,2470.362,13.28,0.109,125.0
2021-02-26T00:55:03,42.805,6.029,0.103,-0.044,-0.01,107.0,107.0,103.0,13.4,1505.2,324.5,-0.8,1.8,2470.358,13.28,0.112,113.1
2021-02-26T00:58:03,42.805,6.029,0.08,-0.045,0.01,108.0,107.0,103.0,13.4,1505.2,323.2,-0.8,1.8,2470.39,13.28,0.091,119.4
2021-02-26T01:04:03,42.805,6.029,0.097,-0.033,0.033,105.0,105.0,104.0,13.4,1505.2,325.0,-0.7,1.8,2470.419,13.28,0.102,108.8
2021-02-26T01:07:03,42.805,6.029,0.085,-0.041,0.002,105.0,107.0,104.0,13.4,1505.2,325.0,-0.8,1.8,2470.41,13.28,0.094,115.7
2021-02-26T01:10:03,42.805,6.029,0.108,-0.029,0.025,106.0,107.0,103.0,13.4,1505.2,323.4,-0.8,1.8,2470.417,13.28,0.111,105.0
2021-02-26T01:13:03,42.805,6.029,0.076,-0.04,-0.005,106.0,106.0,104.0,13.3,1505.2,324.5,-0.7,1.8,2470.384,13.28,0.085,117.8
2021-02-26T01:16:03,42.805,6.029,0.065,-0.051,0.018,106.0,105.0,104.0,13.4,1505.2,328.3,-0.7,1.8,2470.35,13.28,0.082,128.1
2021-02-26T01:19:03,42.805,6.029,0.085,-0.032,0.008,107.0,106.0,104.0,13.4,1505.2,326.3,-0.8,1.8,2470.355,13.28,0.09,110.6
2021-02-26T01:22:03,42.805,6.029,0.095,-0.047,0.037,106.0,106.0,104.0,13.4,1505.2,326.4,-0.7,1.8,2470.4,13.28,0.105,116.3
2021-02-26T01:25:03,42.805,6.029,0.08,-0.044,0.024,108.0,106.0,103.0,13.4,1505.2,324.5,-0.7,1.8,2470.399,13.28,0.091,118.8
2021-02-26T01:28:03,42.805,6.029,0.087,-0.045,0.025,107.0,107.0,105.0,13.4,1505.2,327.0,-0.7,1.8,2470.325,13.28,0.097,117.4
2021-02-26T01:31:03,42.805,6.029,0.103,-0.051,0.022,107.0,107.0,104.0,13.4,1505.2,325.2,-0.7,1.8,2470.381,13.28,0.114,116.3
2021-02-26T01:34:03,42.805,6.029,0.079,-0.067,0.015,107.0,107.0,103.0,13.4,1505.2,326.6,-0.8,1.8,2470.379,13.28,0.103,130.3
2021-02-26T01:37:03,42.805,6.029,0.085,-0.051,0.0,105.0,105.0,103.0,13.4,1505.2,324.3,-0.8,1.8,2470.399,13.28,0.099,121.0
2021-02-26T01:40:03,42.805,6.029,0.082,-0.057,0.049,107.0,104.0,103.0,13.4,1505.2,327.9,-0.7,1.8,2470.351,13.28,0.099,124.8
2021-02-26T01:43:03,42.805,6.029,0.07,-0.066,0.025,106.0,106.0,104.0,13.4,1505.2,327.8,-0.7,1.8,2470.369,13.28,0.096,133.3
2021-02-26T01:46:03,42.805,6.029,0.089,-0.065,0.009,108.0,106.0,103.0,13.4,1505.2,324.5,-0.8,1.8,2470.406,13.28,0.11,126.1
2021-02-26T01:49:03,42.805,6.029,0.095,-0.052,0.016,106.0,105.0,104.0,13.4,1505.2,322.9,-0.8,1.9,2470.392,13.28,0.108,118.7
2021-02-26T01:52:03,42.805,6.029,0.1,-0.049,0.004,107.0,106.0,104.0,13.4,1505.2,324.3,-0.8,1.8,2470.378,13.28,0.111,116.1
2021-02-26T01:55:03,42.805,6.029,0.096,-0.043,-0.01,107.0,105.0,102.0,13.4,1505.2,324.0,-0.8,1.8,2470.393,13.28,0.105,114.1
2021-02-26T01:58:03,42.805,6.029,0.098,-0.063,-0.032,108.0,106.0,103.0,13.4,1505.2,328.3,-0.8,1.8,2470.397,13.28,0.116,122.7
2021-02-26T02:04:03,42.805,6.029,0.113,-0.068,-0.001,105.0,105.0,104.0,13.4,1505.2,326.8,-0.8,1.8,2470.43,13.28,0.131,121.0
2021-02-26T02:07:03,42.805,6.029,0.09,-0.054,0.054,107.0,106.0,103.0,13.4,1505.2,325.2,-0.8,1.8,2470.373,13.28,0.104,121.0
2021-02-26T02:10:03,42.805,6.029,0.075,-0.058,0.007,106.0,106.0,104.0,13.4,1505.2,327.5,-0.7,1.8,2470.391,13.28,0.094,127.7
2021-02-26T02:13:03,42.805,6.029,0.072,-0.057,0.025,106.0,106.0,103.0,13.3,1505.2,325.1,-0.7,1.8,2470.404,13.28,0.091,128.4
2021-02-26T02:16:03,42.805,6.029,0.094,-0.058,0.009,106.0,106.0,104.0,13.4,1505.2,324.6,-0.8,1.8,2470.414,13.28,0.11,121.7
2021-02-26T02:19:03,42.805,6.029,0.089,-0.037,0.018,106.0,106.0,104.0,13.4,1505.2,325.2,-0.7,1.9,2470.395,13.28,0.096,112.6
2021-02-26T02:22:03,42.805,6.029,0.088,-0.076,0.022,107.0,105.0,104.0,13.4,1505.2,323.9,-0.8,1.9,2470.385,13.28,0.116,130.8
2021-02-26T02:25:03,42.805,6.029,0.094,-0.038,0.0,108.0,105.0,104.0,13.4,1505.2,324.5,-0.8,1.8,2470.358,13.28,0.101,112.0
2021-02-26T02:28:03,42.805,6.029,0.075,-0.065,0.028,107.0,106.0,104.0,13.4,1505.2,327.6,-0.7,1.8,2470.432,13.28,0.099,130.9
2021-02-26T02:31:03,42.805,6.029,0.094,-0.05,0.013,106.0,106.0,104.0,13.4,1505.2,323.1,-0.7,1.9,2470.417,13.28,0.106,118.0
2021-02-26T02:34:03,42.805,6.029,0.089,-0.059,-0.018,107.0,105.0,104.0,13.4,1505.2,323.3,-0.8,1.8,2470.381,13.28,0.106,123.5
2021-02-26T02:37:03,42.805,6.029,0.092,-0.056,0.005,106.0,106.0,104.0,13.4,1505.2,323.2,-0.7,1.8,2470.42,13.28,0.107,121.3
2021-02-26T02:40:03,42.805,6.029,0.104,-0.063,0.03,106.0,107.0,103.0,13.4,1505.2,323.4,-0.7,1.8,2470.426,13.28,0.121,121.2
2021-02-26T02:43:03,42.805,6.029,0.11,-0.067,0.034,107.0,106.0,104.0,13.3,1505.2,328.1,-0.8,1.8,2470.419,13.28,0.128,121.3
2021-02-26T02:46:03,42.805,6.029,0.089,-0.037,0.039,106.0,106.0,104.0,13.4,1505.2,323.0,-0.8,1.8,2470.444,13.28,0.096,112.6
2021-02-26T02:49:03,42.805,6.029,0.08,-0.05,-0.012,107.0,105.0,104.0,13.4,1505.2,325.8,-0.8,1.8,2470.409,13.28,0.094,122.0
2021-02-26T02:52:03,42.805,6.029,0.104,-0.052,0.019,107.0,105.0,103.0,13.4,1505.2,323.2,-0.7,1.8,2470.444,13.28,0.116,116.6
2021-02-26T02:55:03,42.805,6.029,0.071,-0.049,0.0,106.0,106.0,104.0,13.3,1505.2,326.1,-0.8,1.8,2470.419,13.28,0.086,124.6
2021-02-26T02:58:03,42.805,6.029,0.077,-0.043,0.002,107.0,105.0,103.0,13.4,1505.2,326.3,-0.8,1.8,2470.45,13.28,0.088,119.2
2021-02-26T03:04:03,42.805,6.029,0.071,-0.06,0.0,107.0,106.0,104.0,13.4,1505.2,326.3,-0.8,1.8,2470.457,13.28,0.092,130.2
2021-02-26T03:07:03,42.805,6.029,0.07,-0.067,0.006,107.0,106.0,105.0,13.4,1505.2,325.4,-0.8,1.8,2470.462,13.28,0.096,133.7
2021-02-26T03:10:03,42.805,6.029,0.067,-0.047,0.005,106.0,106.0,105.0,13.4,1505.2,328.1,-0.7,1.8,2470.474,13.28,0.081,125.1
2021-02-26T03:13:03,42.805,6.029,0.137,-0.056,0.013,108.0,106.0,105.0,13.4,1505.2,323.8,-0.8,1.8,2470.463,13.28,0.148,112.2
2021-02-26T03:16:03,42.805,6.029,0.096,-0.067,0.031,109.0,107.0,104.0,13.4,1505.2,324.4,-0.8,1.8,2470.471,13.28,0.117,124.9
2021-02-26T03:19:03,42.805,6.029,0.075,-0.061,0.007,107.0,107.0,104.0,13.4,1505.2,327.5,-0.8,1.8,2470.47,13.28,0.096,129.1
2021-02-26T03:22:03,42.805,6.029,0.066,-0.061,0.009,107.0,106.0,105.0,13.4,1505.2,325.1,-0.8,1.8,2470.45,13.28,0.089,132.7
2021-02-26T03:25:03,42.805,6.029,0.09,-0.048,-0.001,108.0,106.0,104.0,13.3,1505.2,325.2,-0.7,1.8,2470.513,13.28,0.102,118.1
2021-02-26T03:28:03,42.805,6.029,0.08,-0.051,0.027,107.0,107.0,103.0,13.3,1505.2,326.6,-0.7,1.8,2470.492,13.28,0.094,122.5
2021-02-26T03:31:03,42.805,6.029,0.078,-0.07,0.008,107.0,106.0,104.0,13.4,1505.2,327.3,-0.7,1.8,2470.491,13.28,0.104,131.9
2021-02-26T03:34:03,42.805,6.029,0.066,-0.051,0.006,107.0,106.0,103.0,13.4,1505.2,324.4,-0.8,1.9,2470.526,13.28,0.083,127.7
2021-02-26T03:37:03,42.805,6.029,0.09,-0.046,0.003,107.0,106.0,105.0,13.4,1505.2,322.9,-0.8,1.8,2470.487,13.28,0.101,117.1
2021-02-26T03:40:03,42.805,6.029,0.077,-0.051,0.022,106.0,105.0,104.0,13.4,1505.2,323.4,-0.8,1.8,2470.501,13.28,0.092,123.5
2021-02-26T03:43:03,42.805,6.029,0.087,-0.065,0.044,107.0,105.0,103.0,13.3,1505.2,323.4,-0.7,1.8,2470.464,13.28,0.108,126.8
2021-02-26T03:46:03,42.805,6.029,0.078,-0.049,0.017,106.0,106.0,104.0,13.4,1505.2,324.4,-0.7,1.8,2470.48,13.28,0.092,122.1
2021-02-26T03:49:03,42.805,6.029,0.089,-0.032,-0.011,109.0,106.0,104.0,13.4,1505.2,325.1,-0.7,1.8,2470.448,13.28,0.094,109.8
2021-02-26T03:52:03,42.805,6.029,0.118,-0.038,0.024,107.0,105.0,104.0,13.3,1505.2,324.3,-0.8,1.8,2470.491,13.28,0.123,107.8
2021-02-26T03:55:03,42.805,6.029,0.085,-0.056,0.017,107.0,106.0,104.0,13.4,1505.2,324.8,-0.8,1.8,2470.511,13.28,0.101,123.4
2021-02-26T03:58:03,42.805,6.029,0.082,-0.037,0.011,108.0,107.0,103.0,13.4,1505.2,324.9,-0.8,1.8,2470.511,13.28,0.089,114.3
2021-02-26T04:04:03,42.805,6.029,0.098,-0.053,0.01,106.0,105.0,104.0,13.3,1505.2,323.7,-0.8,1.9,2470.549,13.28,0.111,118.4
2021-02-26T04:07:03,42.805,6.029,0.075,-0.018,-0.001,107.0,105.0,103.0,13.4,1505.2,324.7,-0.8,1.8,2470.541,13.28,0.077,103.5
2021-02-26T04:10:03,42.805,6.029,0.097,-0.057,0.029,107.0,107.0,104.0,13.4,1505.2,323.5,-0.8,1.8,2470.557,13.28,0.112,120.4
2021-02-26T04:13:03,42.805,6.029,0.101,-0.044,0.003,109.0,107.0,104.0,13.4,1505.2,325.1,-0.7,1.8,2470.569,13.28,0.11,113.5
2021-02-26T04:16:03,42.805,6.029,0.096,-0.052,0.01,107.0,106.0,103.0,13.4,1505.2,326.3,-0.7,1.8,2470.506,13.28,0.109,118.4
2021-02-26T04:19:03,42.805,6.029,0.109,-0.03,0.011,107.0,106.0,104.0,13.4,1505.2,323.9,-0.8,1.8,2470.538,13.28,0.113,105.4
2021-02-26T04:22:03,42.805,6.029,0.102,-0.063,-0.018,107.0,106.0,104.0,13.4,1505.2,327.1,-0.7,1.8,2470.573,13.28,0.119,121.7
2021-02-26T04:25:03,42.805,6.029,0.096,-0.07,0.017,107.0,107.0,104.0,13.4,1505.2,326.5,-0.7,1.8,2470.53,13.28,0.118,126.1
2021-02-26T04:28:03,42.805,6.029,0.085,-0.045,0.012,107.0,107.0,106.0,13.4,1505.2,326.0,-0.8,1.8,2470.513,13.28,0.096,117.9
2021-02-26T04:31:03,42.805,6.029,0.092,-0.038,0.039,108.0,107.0,106.0,13.3,1505.2,323.7,-0.8,1.8,2470.504,13.28,0.099,112.4
2021-02-26T04:34:03,42.805,6.029,0.089,-0.052,0.002,107.0,107.0,105.0,13.4,1505.2,326.0,-0.7,1.9,2470.55,13.28,0.103,120.3
2021-02-26T04:37:03,42.805,6.029,0.093,-0.058,0.0,108.0,107.0,105.0,13.4,1505.2,323.6,-0.7,1.8,2470.573,13.28,0.109,122.0
2021-02-26T04:40:03,42.805,6.029,0.087,-0.033,0.005,107.0,106.0,104.0,13.4,1505.2,327.1,-0.8,1.8,2470.545,13.28,0.093,110.8
2021-02-26T04:43:03,42.805,6.029,0.105,-0.041,0.023,107.0,108.0,104.0,13.4,1505.2,325.8,-0.8,1.8,2470.515,13.28,0.112,111.3
2021-02-26T04:46:03,42.805,6.029,0.082,-0.032,0.013,108.0,107.0,105.0,13.4,1505.2,328.2,-0.8,1.8,2470.548,13.28,0.088,111.3
2021-02-26T04:49:03,42.805,6.029,0.062,-0.053,0.005,107.0,107.0,104.0,13.3,1505.2,327.0,-0.8,1.8,2470.58,13.28,0.081,130.5
2021-02-26T04:52:03,42.805,6.029,0.091,-0.039,0.04,107.0,107.0,105.0,13.3,1505.2,328.6,-0.8,1.8,2470.579,13.28,0.099,113.2
2021-02-26T04:55:03,42.805,6.029,0.099,-0.043,0.025,108.0,108.0,105.0,13.4,1505.2,323.5,-0.8,1.8,2470.564,13.28,0.107,113.5
2021-02-26T04:58:03,42.805,6.029,0.089,-0.056,0.05,110.0,108.0,105.0,13.4,1505.2,326.1,-0.8,1.8,2470.55,13.28,0.105,122.2
2021-02-26T05:04:03,42.805,6.029,0.077,-0.051,0.035,108.0,108.0,104.0,13.4,1505.2,326.1,-0.7,1.9,2470.613,13.28,0.092,123.5
2021-02-26T05:07:03,42.805,6.029,0.093,-0.055,0.013,108.0,108.0,105.0,13.3,1505.2,323.6,-0.8,1.8,2470.607,13.28,0.108,120.6
2021-02-26T05:10:03,42.805,6.029,0.081,-0.052,0.027,107.0,106.0,105.0,13.4,1505.2,326.4,-0.8,1.8,2470.598,13.28,0.096,122.7
2021-02-26T05:13:03,42.805,6.029,0.082,-0.042,0.046,109.0,106.0,104.0,13.4,1505.2,324.2,-0.7,1.8,2470.579,13.28,0.092,117.1
2021-02-26T05:16:03,42.805,6.029,0.066,-0.032,0.01,109.0,107.0,105.0,13.4,1505.2,326.7,-0.7,1.9,2470.593,13.28,0.073,115.9
2021-02-26T05:19:03,42.805,6.029,0.082,-0.045,-0.001,109.0,107.0,104.0,13.3,1505.2,323.9,-0.8,1.9,2470.587,13.28,0.093,118.8
2021-02-26T05:22:03,42.805,6.029,0.084,-0.052,0.006,108.0,107.0,105.0,13.4,1505.2,323.2,-0.8,1.8,2470.62,13.28,0.098,121.8
2021-02-26T05:25:03,42.805,6.029,0.074,-0.048,0.008,108.0,107.0,106.0,13.4,1505.2,323.0,-0.8,1.8,2470.606,13.28,0.088,123.0
2021-02-26T05:28:03,42.805,6.029,0.085,-0.049,0.002,107.0,108.0,106.0,13.4,1505.2,322.6,-0.7,1.8,2470.617,13.28,0.098,120.0
2021-02-26T05:31:03,42.805,6.029,0.081,-0.063,-0.002,108.0,108.0,105.0,13.4,1505.2,326.1,-0.7,1.8,2470.621,13.28,0.102,127.9
2021-02-26T05:34:03,42.805,6.029,0.067,-0.047,0.019,108.0,107.0,106.0,13.4,1505.2,326.0,-0.7,1.8,2470.627,13.28,0.081,125.1
2021-02-26T05:37:03,42.805,6.029,0.065,-0.051,0.005,109.0,107.0,104.0,13.4,1505.2,326.8,-0.8,1.9,2470.542,13.28,0.082,128.1
2021-02-26T05:40:03,42.805,6.029,0.071,-0.067,-0.005,108.0,108.0,105.0,13.3,1505.2,325.9,-0.7,1.8,2470.614,13.28,0.097,133.3
2021-02-26T05:43:03,42.805,6.029,0.062,-0.062,0.021,109.0,108.0,105.0,13.4,1505.2,325.3,-0.8,1.8,2470.591,13.28,0.087,135.0
2021-02-26T05:46:03,42.805,6.029,0.06,-0.045,0.018,109.0,108.0,105.0,13.4,1505.2,327.3,-0.7,1.8,2470.555,13.28,0.074,126.9
2021-02-26T05:49:03,42.805,6.029,0.063,-0.042,0.016,108.0,108.0,106.0,13.3,1505.2,326.2,-0.7,1.8,2470.607,13.28,0.075,123.7
2021-02-26T05:52:03,42.805,6.029,0.073,-0.04,-0.001,109.0,108.0,104.0,13.4,1505.2,327.6,-0.8,1.8,2470.59,13.28,0.083,118.7
2021-02-26T05:55:03,42.805,6.029,0.064,-0.018,0.015,108.0,109.0,105.0,13.3,1505.2,325.9,-0.7,1.8,2470.623,13.28,0.066,105.7
2021-02-26T05:58:03,42.805,6.029,0.073,-0.049,-0.005,107.0,108.0,105.0,13.4,1505.2,326.8,-0.7,1.8,2470.643,13.28,0.087,123.9
2021-02-26T06:04:03,42.805,6.029,0.066,-0.022,0.023,108.0,108.0,105.0,13.3,1505.2,323.5,-0.7,1.8,2470.65,13.28,0.069,108.4
2021-02-26T06:07:03,42.805,6.029,0.066,-0.04,0.002,107.0,107.0,106.0,13.4,1505.2,326.7,-0.8,1.8,2470.63,13.28,0.077,121.2
2021-02-26T06:10:03,42.805,6.029,0.078,-0.029,0.007,108.0,109.0,105.0,13.4,1505.2,328.5,-0.7,1.9,2470.624,13.28,0.083,110.4
2021-02-26T06:13:03,42.805,6.029,0.083,-0.03,0.015,110.0,108.0,105.0,13.4,1505.2,325.4,-0.7,1.8,2470.618,13.28,0.088,109.9
2021-02-26T06:16:03,42.805,6.029,0.083,-0.038,0.01,108.0,107.0,105.0,13.4,1505.2,327.5,-0.8,1.8,2470.599,13.28,0.091,114.6
2021-02-26T06:19:03,42.805,6.029,0.047,-0.037,-0.007,108.0,107.0,105.0,13.4,1505.2,325.7,-0.8,1.8,2470.644,13.28,0.059,128.2
2021-02-26T06:22:03,42.805,6.029,0.071,-0.035,0.029,109.0,109.0,105.0,13.4,1505.2,328.6,-0.7,1.8,2470.685,13.28,0.079,116.2
2021-02-26T06:25:03,42.805,6.029,0.057,-0.05,0.0,108.0,109.0,105.0,13.4,1505.2,325.5,-0.7,1.8,2470.645,13.28,0.075,131.3
2021-02-26T06:28:03,42.805,6.029,0.071,-0.046,0.037,110.0,108.0,105.0,13.4,1505.2,328.5,-0.7,1.8,2470.617,13.28,0.084,122.9
2021-02-26T06:31:03,42.805,6.029,0.058,-0.041,0.007,110.0,107.0,106.0,13.4,1505.2,324.7,-0.8,1.9,2470.636,13.28,0.071,125.3
2021-02-26T06:34:03,42.805,6.029,0.08,-0.04,-0.003,108.0,108.0,106.0,13.3,1505.2,324.0,-0.8,1.8,2470.648,13.28,0.089,116.6
2021-02-26T06:37:03,42.805,6.029,0.057,-0.032,0.044,109.0,109.0,106.0,13.3,1505.2,327.4,-0.7,1.8,2470.639,13.28,0.065,119.3
2021-02-26T06:40:03,42.805,6.029,0.053,-0.054,-0.016,109.0,108.0,105.0,13.4,1505.2,326.6,-0.7,1.8,2470.647,13.28,0.075,135.5
2021-02-26T06:43:03,42.805,6.029,0.057,-0.039,0.003,110.0,108.0,106.0,13.4,1505.2,324.2,-0.8,1.8,2470.625,13.28,0.069,124.4
2021-02-26T06:46:03,42.805,6.029,0.053,-0.042,0.026,109.0,107.0,105.0,13.3,1505.2,328.1,-0.7,1.8,2470.609,13.28,0.067,128.4
2021-02-26T06:49:03,42.805,6.029,0.065,-0.05,0.038,108.0,107.0,106.0,13.4,1505.2,327.8,-0.7,1.8,2470.62,13.28,0.082,127.6
2021-02-26T06:52:03,42.805,6.029,0.075,-0.044,0.026,109.0,107.0,106.0,13.4,1505.2,324.2,-0.7,1.8,2470.604,13.28,0.086,120.4
2021-02-26T06:55:03,42.805,6.029,0.065,-0.056,0.005,109.0,109.0,105.0,13.4,1505.2,327.6,-0.8,1.8,2470.608,13.28,0.085,130.7
2021-02-26T06:58:03,42.805,6.029,0.074,-0.037,0.012,109.0,109.0,105.0,13.4,1505.2,324.1,-0.7,1.8,2470.628,13.28,0.082,116.6
2021-02-26T07:04:03,42.805,6.029,0.063,-0.042,0.024,109.0,108.0,105.0,13.3,1505.2,323.0,-0.8,1.8,2470.67,13.28,0.075,123.7
2021-02-26T07:07:03,42.805,6.029,0.059,-0.046,0.014,109.0,108.0,105.0,13.3,1505.2,326.4,-0.7,1.8,2470.639,13.28,0.074,127.9
2021-02-26T07:10:03,42.805,6.029,0.08,-0.028,0.009,108.0,108.0,105.0,13.4,1505.2,324.7,-0.8,1.9,2470.641,13.28,0.084,109.3
2021-02-26T07:13:03,42.805,6.029,0.058,-0.034,0.006,109.0,108.0,105.0,13.4,1505.2,326.4,-0.8,1.8,2470.64,13.28,0.067,120.4
2021-02-26T07:16:03,42.805,6.029,0.065,-0.028,-0.017,110.0,109.0,105.0,13.3,1505.2,323.3,-0.8,1.8,2470.667,13.28,0.07,113.3
2021-02-26T07:19:03,42.805,6.029,0.055,-0.032,0.02,109.0,109.0,106.0,13.4,1505.2,325.6,-0.7,1.8,2470.656,13.28,0.063,120.2
2021-02-26T07:22:03,42.805,6.029,0.079,-0.052,0.019,109.0,108.0,106.0,13.4,1505.2,326.3,-0.8,1.8,2470.598,13.28,0.094,123.4
2021-02-26T07:25:03,42.805,6.029,0.053,-0.053,0.012,109.0,108.0,105.0,13.4,1505.2,327.5,-0.7,1.8,2470.644,13.28,0.074,135.0
2021-02-26T07:28:03,42.805,6.029,0.06,-0.035,0.03,110.0,108.0,106.0,13.4,1505.2,323.4,-0.8,1.8,2470.639,13.28,0.069,120.3
2021-02-26T07:31:03,42.805,6.029,0.062,-0.048,0.019,109.0,108.0,106.0,13.4,1505.2,324.4,-0.7,1.8,2470.656,13.28,0.078,127.7
2021-02-26T07:34:03,42.805,6.029,0.05,-0.053,0.011,109.0,108.0,105.0,13.4,1505.2,326.5,-0.7,1.8,2470.648,13.29,0.072,136.7
2021-02-26T07:37:03,42.805,6.029,0.051,-0.043,-0.001,109.0,109.0,105.0,13.4,1505.2,325.9,-0.8,1.8,2470.611,13.28,0.066,130.1
2021-02-26T07:40:03,42.805,6.029,0.041,-0.056,0.003,109.0,108.0,105.0,13.4,1505.2,324.4,-0.7,1.8,2470.651,13.29,0.069,143.8
2021-02-26T07:43:03,42.805,6.029,0.058,-0.037,0.034,110.0,109.0,105.0,13.4,1505.2,328.2,-0.8,1.8,2470.637,13.29,0.068,122.5
2021-02-26T07:46:03,42.805,6.029,0.048,-0.048,-0.02,109.0,108.0,105.0,13.3,1505.2,323.6,-0.7,1.8,2470.631,13.29,0.067,135.0
2021-02-26T07:49:03,42.805,6.029,0.053,-0.053,-0.032,109.0,109.0,105.0,13.4,1505.2,327.1,-0.8,1.8,2470.635,13.29,0.074,135.0
2021-02-26T07:52:03,42.805,6.029,0.044,-0.03,0.0,109.0,108.0,106.0,13.4,1505.2,324.8,-0.7,1.8,2470.601,13.29,0.053,124.3
2021-02-26T07:55:03,42.805,6.029,0.039,-0.038,0.0,109.0,109.0,106.0,13.4,1505.2,326.4,-0.7,1.8,2470.61,13.29,0.054,134.3
2021-02-26T07:58:03,42.805,6.029,0.06,-0.052,-0.019,108.0,108.0,106.0,13.4,1505.2,326.7,-0.8,1.8,2470.612,13.29,0.079,130.9
2021-02-26T08:04:03,42.805,6.029,0.05,-0.044,-0.002,111.0,109.0,106.0,13.4,1505.2,326.2,-0.7,1.8,2470.648,13.28,0.066,131.3
2021-02-26T08:07:03,42.805,6.029,0.046,-0.032,0.021,109.0,108.0,106.0,13.4,1505.2,326.7,-0.8,1.8,2470.629,13.28,0.056,124.8
2021-02-26T08:10:03,42.805,6.029,0.052,-0.034,0.002,109.0,109.0,105.0,13.4,1505.2,326.1,-0.7,1.8,2470.638,13.28,0.062,123.2
2021-02-26T08:13:03,42.805,6.029,0.047,-0.027,-0.029,109.0,108.0,107.0,13.3,1505.2,326.0,-0.7,1.8,2470.646,13.28,0.054,119.9
2021-02-26T08:16:03,42.805,6.029,0.051,-0.037,-0.006,110.0,109.0,106.0,13.3,1505.2,326.8,-0.8,1.8,2470.623,13.28,0.063,126.0
2021-02-26T08:19:03,42.805,6.029,0.062,-0.047,0.018,110.0,109.0,105.0,13.4,1505.2,323.5,-0.7,1.8,2470.62,13.29,0.077,127.2
2021-02-26T08:22:03,42.805,6.029,0.031,-0.014,0.015,109.0,108.0,106.0,13.3,1505.2,325.0,-0.7,1.8,2470.622,13.29,0.034,114.3
2021-02-26T08:25:03,42.805,6.029,0.045,-0.022,0.001,110.0,109.0,106.0,13.4,1505.2,326.7,-0.7,1.8,2470.594,13.29,0.05,116.1
2021-02-26T08:28:03,42.805,6.029,0.042,-0.06,-0.003,109.0,110.0,106.0,13.3,1505.2,328.2,-0.7,1.8,2470.622,13.29,0.073,145.0
2021-02-26T08:31:03,42.805,6.029,0.018,-0.017,0.023,110.0,109.0,105.0,13.4,1505.2,325.1,-0.8,1.8,2470.616,13.29,0.024,133.4
2021-02-26T08:34:03,42.805,6.029,0.065,-0.029,-0.019,108.0,109.0,106.0,13.4,1505.2,323.0,-0.7,1.8,2470.613,13.29,0.071,114.0
2021-02-26T08:37:03,42.805,6.029,0.046,-0.039,0.038,109.0,109.0,105.0,13.4,1505.2,326.8,-0.8,1.8,2470.605,13.29,0.06,130.3
2021-02-26T08:40:03,42.805,6.029,0.023,-0.041,-0.001,110.0,109.0,106.0,13.4,1505.2,324.4,-0.7,1.8,2470.601,13.29,0.047,150.7
2021-02-26T08:43:03,42.805,6.029,0.039,-0.067,-0.002,110.0,110.0,105.0,13.3,1505.2,328.4,-0.7,1.8,2470.594,13.29,0.077,149.8
2021-02-26T08:46:03,42.805,6.029,0.06,-0.036,0.004,110.0,109.0,105.0,13.3,1505.2,323.2,-0.7,1.8,2470.587,13.29,0.069,121.0
2021-02-26T08:49:03,42.805,6.029,0.039,-0.043,0.007,111.0,108.0,106.0,13.3,1505.2,326.5,-0.7,1.8,2470.596,13.29,0.058,137.8
2021-02-26T08:52:03,42.805,6.029,0.033,-0.04,0.011,110.0,108.0,105.0,13.4,1505.2,324.6,-0.7,1.8,2470.62,13.29,0.051,140.5
2021-02-26T08:55:03,42.805,6.029,0.043,-0.039,0.009,109.0,110.0,105.0,13.3,1505.2,327.6,-0.7,1.8,2470.574,13.29,0.058,132.2
2021-02-26T08:58:03,42.805,6.029,0.025,-0.045,0.01,110.0,109.0,105.0,13.4,1505.2,326.6,-0.7,1.8,2470.607,13.29,0.051,150.9
2021-02-26T09:04:03,42.805,6.029,0.045,-0.039,0.025,109.0,109.0,106.0,13.3,1505.2,327.0,-0.8,1.8,2470.646,13.28,0.059,130.9
2021-02-26T09:07:03,42.805,6.029,0.032,-0.026,0.024,109.0,109.0,105.0,13.4,1505.2,327.8,-0.7,1.8,2470.625,13.28,0.041,129.1
2021-02-26T09:10:03,42.805,6.029,0.051,-0.025,0.02,109.0,108.0,106.0,13.4,1505.2,325.8,-0.7,1.8,2470.629,13.28,0.056,116.1
2021-02-26T09:13:03,42.805,6.029,0.04,-0.057,0.014,109.0,109.0,106.0,13.4,1505.2,326.5,-0.8,1.8,2470.603,13.28,0.069,144.9
2021-02-26T09:16:03,42.805,6.029,0.043,-0.034,0.007,109.0,109.0,106.0,13.4,1505.2,326.4,-0.7,1.8,2470.575,13.28,0.054,128.3
2021-02-26T09:19:03,42.805,6.029,0.055,-0.062,-0.041,109.0,108.0,106.0,13.4,1505.2,327.4,-0.8,1.8,2470.598,13.28,0.082,138.4
2021-02-26T09:22:03,42.805,6.029,0.043,-0.051,0.03,109.0,109.0,106.0,13.4,1505.2,326.8,-0.8,1.8,2470.631,13.28,0.066,139.9
2021-02-26T09:25:03,42.805,6.029,0.042,-0.065,0.015,108.0,108.0,106.0,13.3,1505.2,326.9,-0.7,1.8,2470.593,13.28,0.077,147.1
2021-02-26T09:28:03,42.805,6.029,0.032,-0.037,0.019,109.0,107.0,105.0,13.3,1505.2,326.3,-0.8,1.8,2470.58,13.28,0.048,139.1
2021-02-26T09:31:03,42.805,6.029,0.041,-0.036,-0.006,109.0,110.0,105.0,13.4,1505.2,325.7,-0.8,1.8,2470.608,13.28,0.054,131.3
2021-02-26T09:34:03,42.805,6.029,0.04,-0.042,0.0,109.0,109.0,106.0,13.4,1505.2,326.3,-0.7,1.8,2470.566,13.28,0.057,136.4
2021-02-26T09:37:03,42.805,6.029,0.027,-0.068,0.027,109.0,109.0,106.0,13.4,1505.2,323.2,-0.8,1.8,2470.559,13.28,0.073,158.3
2021-02-26T09:40:03,42.805,6.029,0.044,-0.056,-0.016,109.0,109.0,105.0,13.3,1505.2,325.0,-0.8,1.8,2470.57,13.28,0.071,141.8
2021-02-26T09:43:03,42.805,6.029,0.031,-0.044,-0.002,110.0,108.0,105.0,13.4,1505.2,325.3,-0.7,1.8,2470.579,13.28,0.053,144.8
2021-02-26T09:46:03,42.805,6.029,0.035,-0.057,0.014,109.0,108.0,105.0,13.4,1505.2,325.2,-0.8,1.8,2470.583,13.28,0.066,148.4
2021-02-26T09:49:03,42.805,6.029,0.047,-0.058,0.005,110.0,109.0,105.0,13.3,1505.2,328.0,-0.7,1.8,2470.585,13.28,0.074,141.0
2021-02-26T09:52:03,42.805,6.029,0.035,-0.059,0.005,110.0,108.0,105.0,13.4,1505.2,325.6,-0.7,1.9,2470.595,13.28,0.068,149.3
2021-02-26T09:55:03,42.805,6.029,0.038,-0.063,0.007,110.0,109.0,105.0,13.3,1505.2,324.7,-0.8,1.8,2470.585,13.28,0.073,148.9
2021-02-26T09:58:03,42.805,6.029,0.048,-0.067,-0.014,109.0,108.0,105.0,13.4,1505.2,323.8,-0.7,1.8,2470.583,13.28,0.082,144.4